1998-067MW

Last updated on Fri Aug 04 2017 00:15:03 GMT+0000 (Coordinated Universal Time)

1 42822U 98067MW 17215.28192143 .00007805 00000-0 11972-3 0 9997 2 42822 51.6390 163.3822 0004392 69.6711 290.4752 15.55331431 4180
UTC large
Height (km)
Speed (km/s)
/
Latitude / Longitude
Inclination (degrees)
Orbital Period (minutes)
Azimuth
Elevation
Range (km)
Doppler Factor

Next 0 passes for location: London (51.5072 / 0.1276)

Sorry there are no passes over London.
1998-067MW